{"data":{"norad_id":58285,"epoch":"2026-06-17T18:07:09.077952Z","epoch_age_seconds":8200269,"freshness":"OLD","line1":"1 58285U 23174AF  26168.75496618  .00027672  00000+0  37085-3 0  9993","line2":"2 58285  97.3918 260.9374 0007134 148.7169 211.4513 15.57921477145879","mean_motion":15.57921477,"eccentricity":0.0007134,"inclination_deg":97.3918,"raan_deg":260.9374,"arg_perigee_deg":148.7169,"mean_anomaly_deg":211.4513,"bstar":0.00037085,"rev_number":14587,"period_min":92.430845922538,"perigee_km":388.84252045921,"apogee_km":398.50453972355,"semimajor_km":6771.8105300914,"source":"CELESTRAK","updated_at":"2026-06-18T09:00:49.564116Z"}}